Oak Ridge, TN

10:35 PM EST on November 13, 2019 (GMT -0500)
Oak Ridge

Weather History for KOQT - September, 2019

Change the Weather History Date:

Sunday, September 15, 2019

  Actual Average (KTYS) Record (KTYS)
Temperature  
Mean Temperature 78 °F -  
Max Temperature 95 °F 81 °F 96 °F (1927)
Min Temperature 64 °F 61 °F 41 °F (1985)
Cooling Degree Days 14    
Growing Degree Days 28 (Base 50)    
Moisture  
Dew Point 61 °F    
Average Humidity 61    
Maximum Humidity 91    
Minimum Humidity 25    
Precipitation  
Precipitation 0.00 in - - ()
Sea Level Pressure  
Sea Level Pressure 30.11 in    
Wind  
Wind Speed 0 mph ()    
Max Wind Speed 4 mph    
Max Gust Speed -    
Averages and records for this station are not official NWS values.
T = Trace of Precipitation, MM = Missing Value Source: Averaged Metar Reports

Daily Weather History Graph

Daily Weather History Graph

Search for Another Location

Airport or City:

Astronomy

Sep. 15, 2019 Rise Set
Actual Time 7:19 AM EDT 7:44 PM EDT
Civil Twilight 6:53 AM EDT 8:10 PM EDT
Nautical Twilight 6:23 AM EDT 8:40 PM EDT
Astronomical Twilight 5:52 AM EDT 9:10 PM EDT
Moon 8:53 PM EDT (9/15) 8:27 AM EDT (9/15)
Length of Visible Light 13h 16m
Length of Day
12h 25m
Full, 98% of the Moon is Illuminated
Sep 15
Full
Sep 21
Last Quarter
Sep 28
New
Oct 5
First Quarter
Oct 13
Full

Hourly Weather History & Observations

Time (EDT) Temp. Heat Index Dew Point Humidity Pressure Visibility Wind Dir Wind Speed Gust Speed Precip Events Conditions
12:53 AM 73.9 °F - 69.1 °F 85% 30.16 in - Calm Calm - N/A   Clear
1:53 AM 72.0 °F - 69.1 °F 91% 30.15 in - Calm Calm - N/A   Clear
2:53 AM 71.1 °F - 66.9 °F 87% 30.14 in - Calm Calm - N/A   Clear
3:53 AM 70.0 °F - 64.9 °F 84% 30.14 in - Calm Calm - N/A   Clear
4:53 AM 68.0 °F - 63.0 °F 84% 30.14 in - Calm Calm - N/A   Clear
5:53 AM 66.0 °F - 61.0 °F 84% 30.15 in - Calm Calm - N/A   Clear
6:53 AM 64.9 °F - 61.0 °F 87% 30.17 in - Calm Calm - N/A   Clear
7:53 AM 66.0 °F - 61.0 °F 84% 30.17 in - Calm Calm - N/A   Clear
11:53 AM 82.9 °F 84.4 °F 64.0 °F 53% 30.16 in - Calm Calm - N/A   Clear
12:53 PM 87.1 °F 87.8 °F 63.0 °F 44% 30.14 in - Calm Calm - N/A   Clear
1:53 PM 91.0 °F 91.5 °F 62.1 °F 38% 30.12 in - Calm Calm - N/A   Clear
2:53 PM 93.0 °F 93.8 °F 62.1 °F 36% 30.09 in - Variable 3.5 mph - N/A   Clear
3:53 PM 93.0 °F 92.0 °F 57.9 °F 31% 30.06 in - Variable 3.5 mph - N/A   Clear
5:53 PM 93.9 °F 91.4 °F 53.1 °F 25% 30.04 in - Calm Calm - N/A   Clear
6:53 PM 91.0 °F 88.5 °F 53.1 °F 27% 30.04 in - East 3.5 mph - N/A   Clear
7:53 PM 82.9 °F 82.1 °F 55.9 °F 39% 30.05 in - Calm Calm - N/A   Clear
8:53 PM 78.1 °F - 57.9 °F 50% 30.06 in - Calm Calm - N/A   Clear
9:53 PM 73.9 °F - 59.0 °F 59% 30.08 in - Calm Calm - N/A   Clear
10:53 PM 71.1 °F - 59.0 °F 66% 30.09 in - Calm Calm - N/A   Clear
11:53 PM 69.1 °F - 59.0 °F 70% 30.09 in - Calm Calm - N/A   Clear